Location: Nag� el Ma?a??a
(24.0667°N, 32.8833°E)
Time: 02:26:30
(UTC+00:00)

Envisat - Visible Passes

Search period start: 27 November 2021 00:00
Search period end: 07 December 2021 00:00
Orbit: 764 x 766 km, 98.2° (Epoch: 26 November)

Date Brightness Start Highest point End Pass type
(mag) Time Alt. Az. Time Alt. Az. Time Alt. Az.
27 Nov 5.6 01:42:08 10° NE 01:45:35 18° E 01:49:02 10° SE visible
27 Nov 3.6 03:20:02 10° N 03:24:32 33° WNW 03:29:01 10° SW visible
28 Nov 2.9 02:42:44 10° N 02:47:49 86° WNW 02:52:53 10° SSW visible
28 Nov 6.4 15:30:13 10° WSW 15:32:06 12° W 15:33:59 10° WNW visible
29 Nov 4.5 02:06:20 10° NNE 02:10:58 36° E 02:15:35 10° SSE visible
29 Nov 4.3 03:46:24 10° NNW 03:49:37 17° WNW 03:52:52 10° WSW visible
30 Nov 5.9 01:31:32 10° ENE 01:33:59 13° E 01:36:25 10° SE visible
30 Nov 3.3 03:08:16 10° N 03:13:03 43° WNW 03:17:49 10° SW visible
01 Dec 3.2 02:31:14 10° NNE 02:36:17 71° ESE 02:41:20 10° S visible
01 Dec 6.0 15:17:21 10° SW 15:20:29 16° W 15:23:38 10° WNW visible
02 Dec 5.0 01:55:09 10° NE 01:59:24 27° E 02:03:37 10° SSE visible
02 Dec 4.0 03:34:16 10° NNW 03:38:10 23° WNW 03:42:05 10° WSW visible
03 Dec 3.0 02:56:33 10° N 03:01:32 59° WNW 03:06:30 10° SSW visible
04 Dec 3.7 02:19:47 10° NNE 02:24:44 52° E 02:29:40 10° S visible
05 Dec 5.4 01:44:08 10° NE 01:47:48 20° E 01:51:28 10° SE visible
05 Dec 3.7 03:22:20 10° NNW 03:26:42 30° WNW 03:31:04 10° SW visible
06 Dec 2.8 02:44:56 10° N 02:50:01 79° WNW 02:55:04 10° SSW visible
06 Dec 6.5 15:33:07 10° WSW 15:34:18 11° W 15:35:31 10° W visible
